Вернуться в каталог

STARLINK-5402

АктивенСвязьVLEO
NORAD 54869·PAYLOAD·🇺🇸 United States

Запущен Dec 28, 2022 с Cape Canaveral Space Force Station

Loading…

Ближайшие Пролёты (ближайшие 24 часа)

TLE

СвежийSource: CelesTrak SupGP

Эпоха: Sep 14, 2026, 22:05 UTC

1 54869C 22177BB  26257.92062500 -.00013867  00000+0 -50233-3 0  2576
2 54869  43.0016 133.3478 0001275 263.2108 176.2977 15.27581055    13

Отслеживайте STARLINK-5402 в реальном времени с AllMySat

Download on the App Store